SCP
0 0 0 0 0 0 0 0 0 0 0 0 0 -0 0 0 -0 0 0 0 0 0 0 0 -0 0 -0 -0 -0 -0 0 -0 -0 -0 -0 0 -0 0 0 0 0 0 0 0 0 0 0 0 -0
0 0 0 0 0 0 0 0 -0 0 0 0 0 0 0 0 0 0 0 0 0 0 0 0 0 -0 -0 -0 -0 -0 -0 0 -0 -0 -0 -0 0 0 0 0 0 0 0 0 0 0 0 0 0
-0 0 0 0 0 0 0 0 0 0 -0 0 0 0 0 0 0 -0 0 0 0 0 0 0 0 -0 -0 0 -0 -0 -0 -0 -0 -0 -0 0 -0 0 0 -0 -0 -0 -0 0 0 0 0 0 0
0 0 0 0 0 0 0 0 0 0 0 0 0 0 0 0 -0 -0 0 0 0 0 0 0 0 -0 -0 -0 -0 -0 -0 -0 -0 -0 -0 -0 -0 -0 -0 -0 -0 -0 0 0 0 0 0 0 0
0 0 0 0 0 0 0 0 0 0 0 0 0 0 0 0 0 0 0 0 0 0 0 0 0 0 -0 -0 -0 -0 -0 -0 -0 -0 -0 -0 -0 -0 -0 -0 -0 -0 0 0 0 0 0 0 0
0 0 0 0 0 0 0 0 0 0 0 0 0 0 0 0 0 0 0 0 0 0 0 0 0 0 0 -0 0 -0 -0 -0 -0 -0 -0 -0 -0 -0 -0 -0 0 0 0 0 0 0 0 0 0
0 0 0 0 0 0 0 -0 0 0 0 0 -0 0 0 0 0 0 0 0 0 0 0 0 0 0 0 0 0 0 0 0 0 -0 -0 -0 -0 -0 -0 -0 0 0 0 0 0 0 0 0 0
0 0 0 0 0 0 0 0 0 0 0 0 0 0 0 0 0 0 0 0 0 0 0 0 0 0 0 0 0 0 0 0 -0 -0 -0 -0 -0 -0 0 0 0 0 0 0 0 0 0 0 0
0 0 0 0 0 0 0 0 0 0 0 0 0 0 0 0 0 0 0 0 0 0 0 0 0 0 0 0 0 0 0 0 0 0 0 0 0 0 0 0 0 0 0 0 0 0 0 0 0
0 0 0 0 0 0 0 0 0 0 0 0 0 0 0 0 0 0 0 0 0 0 0 0 0 0 0 0 0 0 0 0 0 0 0 0 0 0 0 0 0 0 0 0 0 0 0 0 0
0 0 0 0 0 0 0 0 0 0 0 -0 -0 0 0 0 0 0 0 0 0 0 0 0 0 0 0 0 0 0 0 0 0 0 0 0 0 0 0 0 0 0 0 0 0 0 0 0 0
0 0 0 0 0 0 0 0 0 0 0 0 -0 0 0 0 0 0 0 0 0 0 0 0 0 0 0 0 0 0 0 0 0 0 0 0 0 0 0 0 0 0 0 0 0 0 0 0 0
0 0 0 0 0 0 0 0 0 0 0 0 0 0 0 0 0 0 0 0 0 0 0 0 0 0 0 0 0 0 0 0 0 0 0 0 0 0 0 0 0 0 0 0 0 0 0 0 0
0 0 0 0 0 0 0 0 0 0 0 0 0 0 0 0 0 0 0 0 0 0 0 0 0 0 0 0 0 0 0 0 0 0 0 0 0 0 0 0 0 0 0 0 0 0 0 0 0
0 0 0 0 0 0 0 0 0 0 0 0 0 0 0 0 0 0 0 0 0 0 0 0 0 0 0 0 0 0 0 0 0 0 0 0 0 0 0 0 0 0 0 0 0 0 0 0 0
0 0 0 0 0 0 0 0 0 0 0 0 0 0 0 0 0 0 0 0 0 0 0 0 0 0 0 0 0 0 0 0 0 0 0 0 0 0 0 0 0 0 0 0 0 0 0 0 0
0 0 0 0 0 0 0 0 0 0 0 0 0 0 0 0 0 0 0 0 0 0 0 0 0 0 0 0 0 0 0 0 0 0 0 0 0 0 0 0 0 0 0 0 0 0 0 0 0
0 0 0 0 0 0 0 0 0 0 0 0 0 0 0 0 0 0 0 0 0 0 0 0 0 0 0 0 0 0 0 0 0 0 0 0 0 0 0 0 0 0 0 0 0 0 0 0 0
0 0 0 0 0 0 0 0 0 0 0 0 0 0 0 0 0 0 0 0 0 0 0 0 0 0 0 0 0 0 0 0 0 0 0 0 0 0 0 0 0 0 0 0 0 0 0 0 0
0 0 0 0 0 0 0 0 0 0 0 0 0 0 0 0 0 0 0 0 0 0 0 0 0 0 0 0 0 0 0 0 0 0 0 0 0 0 0 0 0 0 0 0 0 0 0 0 0
0 0 0 0 0 0 0 -0 0 0 0 0 0 0 0 0 0 0 0 0 0 0 0 0 0 0 0 0 0 0 0 0 0 0 0 0 0 0 0 0 0 0 0 0 0 0 0 0 0
0 0 0 0 0 0 0 -0 0 0 0 0 0 0 0 0 0 0 0 0 0 0 0 0 0 0 0 0 0 0 0 0 0 0 0 0 0 0 0 0 0 0 0 0 0 0 0 0 0
0 0 0 0 0 0 0 0 -0 0 0 0 0 0 0 0 0 0 0 0 0 0 0 0 0 0 0 0 0 0 0 0 0 0 0 0 0 0 0 0 0 0 0 0 0 0 0 0 0
0 0 0 0 0 0 0 0 -0 0 0 0 0 0 0 0 0 0 0 0 0 0 0 0 0 0 0 0 0 0 0 0 0 0 0 0 0 0 0 0 0 0 0 0 0 0 0 0 0
0 0 0 0 0 0 0 0 0 0 0 0 0 0 0 0 0 0 0 0 0 0 0 0 0 0 0 0 0 0 0 0 0 0 0 0 0 0 0 0 0 0 0 0 0 0 0 0 0
0 0 0 0 0 0 0 0 0 0 0 0 0 0 0 0 0 0 0 0 0 0 0 0 0 0 0 0 0 0 0 0 0 0 0 0 0 0 0 0 0 0 0 0 0 0 0 0 0
0 0 0 0 0 0 0 0 0 0 0 0 0 0 0 0 0 0 0 0 0 0 0 0 0 0 0 0 0 0 0 0 0 0 0 0 0 0 0 0 0 0 0 0 0 0 0 0 0
0 0 0 0 0 0 0 0 0 0 0 0 0 0 0 0 0 0 0 0 0 0 0 0 0 0 0 0 0 0 0 0 0 0 0 0 0 0 0 0 0 0 0 0 0 0 0 0 0
0 0 0 0 0 0 0 0 0 0 0 0 0 0 0 0 0 0 0 0 0 0 0 0 0 0 0 0 0 0 0 0 0 0 0 0 0 0 0 0 0 0 0 0 0 0 0 0 0
0 0 0 0 0 0 0 0 0 0 0 0 0 0 0 0 0 0 0 0 0 0 0 0 0 0 0 0 0 0 0 0 0 0 0 0 0 0 0 0 0 0 0 0 0 0 0 0 0
Wind_Speed_500mb
23 3 5 3 6 8 2 5 2 6 2 4 19 10 12 8 8 7 18 47 40 45 44 37 33 34 33 30 25 26 33 25 22 20 16 13 14 14 14 14 17 18 18 19 20 20 20 17 17
16 2 4 5 8 5 9 7 9 5 12 37 28 22 5 3 8 12 44 37 40 43 44 39 34 35 34 31 27 23 23 22 16 14 14 12 12 11 11 13 13 14 14 15 16 17 17 15 14
7 5 2 8 6 7 8 7 9 12 33 7 10 9 5 6 10 20 35 43 43 44 42 39 34 33 35 33 29 24 20 20 17 13 12 12 10 9 8 9 10 10 11 11 11 12 12 12 11
2 5 8 7 5 8 7 9 8 14 8 5 19 10 7 3 4 28 43 39 44 46 42 39 35 33 32 34 32 30 24 20 17 14 12 11 11 10 8 7 8 7 8 8 7 7 7 7 6
4 3 6 2 7 6 3 14 19 6 7 11 9 6 4 9 13 26 39 40 44 47 42 39 35 32 31 32 34 32 28 24 20 17 14 12 12 12 11 8 6 7 8 7 6 5 4 3 2
4 4 6 1 6 3 3 19 11 6 10 13 11 15 8 17 11 23 35 38 39 45 43 40 36 34 32 30 30 30 29 27 24 21 18 17 16 15 14 12 11 10 9 8 7 6 6 5 4
7 6 4 3 5 2 7 16 9 12 11 8 21 10 6 26 20 22 33 33 36 46 43 43 39 35 32 32 30 30 30 29 26 25 22 21 21 19 17 16 15 14 13 11 11 10 10 10 10
6 7 2 4 4 6 6 12 7 19 7 18 14 8 8 30 32 29 34 34 34 44 45 45 41 38 35 34 33 31 31 30 28 28 26 25 22 21 20 21 18 17 16 14 14 14 14 14 14
2 7 2 4 5 6 8 6 6 9 18 11 16 9 6 25 36 38 44 44 40 40 46 48 44 41 38 36 35 34 35 34 31 29 26 25 23 22 20 19 19 18 17 16 15 15 15 17 18
6 7 12 2 4 5 5 5 11 9 9 8 12 14 14 29 38 46 54 56 53 49 47 46 46 45 43 42 40 39 39 38 35 33 32 29 26 26 24 23 23 21 20 18 18 17 18 19 20
7 9 9 6 3 9 3 3 6 10 6 19 22 23 26 37 42 45 52 54 53 50 47 46 45 46 45 44 42 42 42 42 41 40 39 36 34 33 33 29 28 26 24 22 23 23 23 23 23
3 12 10 5 2 3 3 4 4 15 12 3 12 23 31 41 44 46 51 53 54 52 48 46 45 46 47 46 45 44 45 45 45 44 42 42 40 39 38 37 33 32 29 29 28 27 26 26 27
7 3 6 7 9 8 10 12 10 21 21 19 18 22 33 38 39 41 42 47 51 55 51 48 48 48 48 50 50 48 48 48 46 46 45 45 45 44 42 42 40 38 35 34 31 32 31 31 31
9 3 7 7 9 9 8 7 4 13 20 21 21 25 36 41 42 43 49 49 56 54 54 49 51 51 51 54 54 52 49 47 47 49 48 48 48 47 47 47 46 44 41 37 36 36 38 38 37
4 4 6 11 7 8 10 9 18 38 21 10 16 29 40 45 50 53 45 46 47 50 54 57 54 54 54 55 55 54 52 50 50 49 47 48 50 50 50 50 50 47 44 44 44 42 44 44 39
4 6 4 7 8 12 14 14 27 13 18 35 31 30 37 49 55 55 55 53 53 54 57 55 59 60 57 57 58 59 56 56 55 53 50 50 51 51 50 52 53 48 46 48 49 47 48 47 44
7 6 8 11 16 2 11 9 17 8 21 17 11 15 32 43 55 61 60 58 57 55 57 57 59 64 62 61 61 61 61 62 61 60 58 56 55 55 56 55 53 49 49 51 52 53 52 50 47
12 8 7 8 1 4 2 15 19 14 11 19 28 29 29 31 46 51 57 59 60 61 60 61 61 62 64 65 66 67 69 70 70 68 67 65 63 62 61 61 59 55 55 57 58 58 54 55 51
7 2 4 5 1 1 9 12 29 23 29 42 44 45 46 44 43 42 48 59 63 67 65 62 62 62 65 70 75 75 75 73 73 74 72 72 69 69 69 69 67 63 62 63 61 61 61 60 55
3 1 6 11 6 4 11 14 21 18 19 37 42 51 58 63 62 54 50 47 51 51 66 69 67 65 67 70 73 76 76 75 74 74 74 71 71 72 76 78 77 73 69 67 67 67 68 66 60
4 8 5 7 10 1 6 13 11 15 11 35 46 51 50 53 57 65 65 58 54 54 54 60 72 73 70 68 72 76 78 79 76 75 74 71 70 67 69 72 74 76 75 74 71 70 70 71 67
8 12 9 5 3 8 6 12 10 12 15 9 36 45 53 61 55 48 45 52 59 53 54 52 56 68 77 76 78 78 80 81 75 73 70 68 67 66 66 66 69 74 78 78 76 74 72 69 73
10 6 10 5 4 3 2 6 12 4 10 17 26 29 28 30 35 36 34 33 29 36 46 50 49 52 54 67 78 82 86 87 83 86 81 79 76 70 68 67 69 73 76 78 78 78 76 74 72
10 9 12 7 5 5 13 10 7 9 11 10 15 33 34 36 26 23 20 19 18 21 28 33 38 40 45 52 59 69 77 82 88 91 94 94 91 84 76 71 71 71 74 75 78 77 77 75 76
4 11 4 5 2 11 7 5 10 19 11 8 18 34 39 37 34 31 29 28 27 25 26 28 31 28 31 38 45 56 66 72 78 80 83 90 94 92 84 77 77 74 72 74 75 77 79 78 79
12 12 8 11 7 6 5 11 9 9 25 18 37 50 62 64 51 42 39 35 30 29 29 30 34 33 36 38 40 45 52 57 62 68 73 80 85 87 84 78 76 74 73 73 74 75 79 80 79
8 11 10 8 6 6 7 11 17 10 17 40 45 62 64 64 63 59 49 43 40 30 24 20 19 19 22 24 28 32 37 45 52 60 68 71 75 79 78 78 76 73 71 70 68 74 77 77 78
6 7 4 2 5 7 6 7 10 9 15 15 34 51 64 65 64 61 56 49 50 38 25 19 18 25 30 30 29 29 29 30 33 39 49 55 60 64 65 65 65 66 66 67 69 73 75 78 78
3 4 4 5 5 7 1 9 7 13 9 12 27 54 57 62 61 61 57 52 50 43 32 24 17 27 35 35 36 37 37 37 38 38 39 42 47 49 51 53 56 59 61 63 67 69 70 73 74
5 3 8 6 7 6 3 10 18 14 10 10 28 46 53 54 55 52 50 49 48 44 40 35 38 44 42 39 33 34 36 36 39 41 41 42 45 46 48 49 51 52 55 57 62 64 67 71 75
Wind_Direction_500mb
355 274 180 295 53 62 270 231 157 119 53 119 146 155 173 118 159 207 158 164 163 164 165 162 163 166 166 162 163 158 160 161 159 152 147 140 136 123 131 127 113 108 103 100 97 95 92 92 93
359 127 173 98 85 70 276 268 182 175 133 115 92 100 84 124 146 153 152 161 167 169 168 168 167 168 175 169 168 169 170 178 180 169 165 159 148 139 129 127 122 117 115 110 104 99 97 96 98
353 119 109 96 110 174 208 217 185 126 149 153 108 101 109 148 175 169 167 159 169 176 173 173 173 174 177 179 174 178 174 171 170 168 174 178 170 160 138 136 139 139 133 123 117 112 106 102 98
311 155 69 86 238 232 215 196 187 142 142 131 133 73 101 172 195 169 167 167 170 178 178 178 181 180 182 185 185 183 189 187 190 190 192 193 197 189 183 162 148 150 149 152 152 135 120 111 106
88 94 59 75 255 272 238 181 167 131 140 127 136 166 71 149 149 172 173 172 175 181 182 184 187 188 186 192 195 197 203 207 211 213 207 210 216 212 212 207 191 183 184 188 189 176 172 166 138
42 55 68 289 262 301 123 167 170 155 149 141 112 134 140 176 177 173 180 177 181 190 188 189 191 194 193 197 203 207 211 213 216 218 221 218 218 219 225 228 230 230 227 226 231 237 246 253 259
78 66 204 272 195 334 198 196 182 176 158 194 151 131 198 197 194 186 187 188 191 197 197 194 196 198 202 203 205 212 216 217 219 220 221 224 226 230 234 238 240 245 245 249 255 261 264 267 266
7 90 298 45 231 227 186 162 196 173 178 141 171 184 226 198 191 193 193 192 191 202 207 204 204 207 208 209 210 214 219 225 228 225 226 228 230 232 237 240 243 247 249 252 260 263 268 270 273
333 58 304 13 6 290 159 136 158 181 152 179 192 194 228 200 190 191 193 193 199 205 209 211 214 214 214 216 219 220 222 226 230 228 230 230 225 223 225 232 237 244 249 255 258 264 269 273 276
104 118 217 255 288 285 188 178 165 162 159 200 204 212 209 199 198 197 198 201 203 208 209 213 219 220 220 219 221 225 226 229 232 233 236 238 234 232 235 241 243 249 249 259 269 272 272 275 276
163 184 208 225 335 358 173 290 197 159 232 219 227 210 194 196 200 208 211 214 215 213 214 217 220 222 224 226 226 229 232 232 234 235 237 241 241 240 244 247 249 252 253 258 267 270 273 276 278
209 218 202 225 287 332 309 296 274 216 237 256 262 237 200 202 209 213 217 222 222 223 226 226 226 226 230 230 231 233 235 235 235 238 243 245 248 248 249 252 255 255 256 261 268 272 272 278 278
193 235 218 256 284 275 271 253 249 260 255 261 276 216 220 217 223 225 230 231 231 230 230 233 233 232 232 236 236 234 235 237 238 240 243 247 249 251 253 256 257 258 259 265 269 270 272 275 277
184 138 308 265 252 258 221 247 230 256 257 248 245 237 229 230 232 225 228 233 234 235 236 236 237 238 241 240 242 241 240 241 241 241 243 247 251 254 256 258 260 259 262 266 269 269 270 271 273
323 110 345 260 238 243 192 269 235 249 247 249 247 234 231 238 232 236 243 244 242 242 242 240 242 242 245 245 246 244 245 244 244 245 247 250 252 254 256 258 260 263 265 268 270 271 272 274 277
175 56 109 270 184 242 164 263 267 259 259 255 255 248 245 243 244 245 245 248 250 246 244 245 244 245 248 247 247 248 248 249 250 251 252 252 253 256 257 259 261 265 266 267 268 270 272 273 275
352 217 182 303 209 108 173 256 278 285 231 256 275 263 256 258 250 248 249 251 253 256 252 249 246 246 248 251 252 254 255 254 254 255 255 254 255 257 259 261 264 264 264 265 267 267 268 270 274
205 211 222 215 180 164 179 258 268 252 297 291 292 288 283 273 264 261 255 254 255 255 254 254 253 252 250 250 252 254 256 256 256 257 257 259 258 260 262 264 265 264 263 263 263 266 267 270 273
118 220 216 244 106 28 248 252 267 274 280 279 282 288 287 279 276 267 261 257 261 258 255 256 255 252 250 248 247 248 251 254 257 259 260 261 263 264 265 266 265 264 264 265 264 264 264 264 266
123 327 274 287 333 175 302 267 272 277 258 263 272 279 280 283 278 269 259 258 260 264 259 258 259 258 253 251 252 253 257 259 261 264 266 268 268 268 267 265 265 266 265 265 264 263 262 262 262
169 172 212 255 334 184 324 282 259 280 243 269 270 273 274 271 277 277 266 258 259 263 269 266 261 260 260 259 258 257 257 258 262 264 267 271 273 272 270 268 266 266 265 265 264 263 261 262 263
203 193 181 190 119 246 19 287 303 276 296 269 273 267 271 287 287 293 293 268 264 268 266 270 271 268 264 261 258 260 262 263 271 275 277 278 278 277 275 272 269 268 267 264 264 264 263 260 259
212 158 163 161 173 6 295 285 265 348 290 274 266 286 312 327 331 317 304 296 285 274 267 269 270 271 274 270 265 264 264 268 271 272 274 278 279 279 277 276 274 272 270 268 266 264 262 260 259
155 92 52 58 93 296 181 180 227 190 222 274 321 327 338 344 342 359 358 346 318 299 284 274 271 267 261 262 265 267 269 270 270 271 274 275 277 278 280 280 279 278 275 271 270 267 264 263 262
116 106 19 3 12 233 3 209 281 285 278 322 326 1 13 12 5 3 0 348 333 317 296 287 281 275 269 264 266 267 267 268 270 270 272 274 276 277 278 279 279 279 280 279 276 271 267 264 261
175 162 166 202 202 267 40 237 250 238 325 360 58 50 42 34 27 22 14 3 353 341 323 298 287 282 279 278 275 273 272 271 271 273 273 273 274 276 278 277 276 276 277 277 276 273 271 271 267
196 207 163 101 26 52 229 289 299 23 37 51 40 30 25 21 19 21 14 12 3 356 344 324 305 302 306 306 299 295 290 286 283 279 276 274 273 275 277 278 279 277 274 274 275 272 271 272 271
147 167 112 69 195 239 258 262 231 52 51 28 23 11 5 2 4 7 11 9 10 4 5 10 29 38 24 14 7 359 345 330 319 304 291 283 279 279 278 277 277 277 275 274 273 271 271 270 268
108 190 116 145 185 184 211 257 190 113 82 55 2 355 355 353 351 349 349 350 351 358 355 355 357 360 359 350 345 339 333 335 336 326 317 306 294 285 280 281 279 276 274 273 273 272 269 267 265
132 291 178 159 214 231 187 260 135 121 114 36 339 343 344 344 341 342 343 338 338 333 328 331 321 315 316 322 320 321 318 322 324 320 316 310 305 300 293 285 279 276 275 274 273 272 271 269 267
Wind_Speed_850mb
23 3 5 3 6 8 2 5 2 6 2 4 19 10 12 8 8 7 18 47 40 45 44 37 33 34 33 30 25 26 33 25 22 20 16 13 14 14 14 14 17 18 18 19 20 20 20 17 17
16 2 4 5 8 5 9 7 9 5 12 37 28 22 5 3 8 12 44 37 40 43 44 39 34 35 34 31 27 23 23 22 16 14 14 12 12 11 11 13 13 14 14 15 16 17 17 15 14
7 5 2 8 6 7 8 7 9 12 33 7 10 9 5 6 10 20 35 43 43 44 42 39 34 33 35 33 29 24 20 20 17 13 12 12 10 9 8 9 10 10 11 11 11 12 12 12 11
2 5 8 7 5 8 7 9 8 14 8 5 19 10 7 3 4 28 43 39 44 46 42 39 35 33 32 34 32 30 24 20 17 14 12 11 11 10 8 7 8 7 8 8 7 7 7 7 6
4 3 6 2 7 6 3 14 19 6 7 11 9 6 4 9 13 26 39 40 44 47 42 39 35 32 31 32 34 32 28 24 20 17 14 12 12 12 11 8 6 7 8 7 6 5 4 3 2
4 4 6 1 6 3 3 19 11 6 10 13 11 15 8 17 11 23 35 38 39 45 43 40 36 34 32 30 30 30 29 27 24 21 18 17 16 15 14 12 11 10 9 8 7 6 6 5 4
7 6 4 3 5 2 7 16 9 12 11 8 21 10 6 26 20 22 33 33 36 46 43 43 39 35 32 32 30 30 30 29 26 25 22 21 21 19 17 16 15 14 13 11 11 10 10 10 10
6 7 2 4 4 6 6 12 7 19 7 18 14 8 8 30 32 29 34 34 34 44 45 45 41 38 35 34 33 31 31 30 28 28 26 25 22 21 20 21 18 17 16 14 14 14 14 14 14
2 7 2 4 5 6 8 6 6 9 18 11 16 9 6 25 36 38 44 44 40 40 46 48 44 41 38 36 35 34 35 34 31 29 26 25 23 22 20 19 19 18 17 16 15 15 15 17 18
6 7 12 2 4 5 5 5 11 9 9 8 12 14 14 29 38 46 54 56 53 49 47 46 46 45 43 42 40 39 39 38 35 33 32 29 26 26 24 23 23 21 20 18 18 17 18 19 20
7 9 9 6 3 9 3 3 6 10 6 19 22 23 26 37 42 45 52 54 53 50 47 46 45 46 45 44 42 42 42 42 41 40 39 36 34 33 33 29 28 26 24 22 23 23 23 23 23
3 12 10 5 2 3 3 4 4 15 12 3 12 23 31 41 44 46 51 53 54 52 48 46 45 46 47 46 45 44 45 45 45 44 42 42 40 39 38 37 33 32 29 29 28 27 26 26 27
7 3 6 7 9 8 10 12 10 21 21 19 18 22 33 38 39 41 42 47 51 55 51 48 48 48 48 50 50 48 48 48 46 46 45 45 45 44 42 42 40 38 35 34 31 32 31 31 31
9 3 7 7 9 9 8 7 4 13 20 21 21 25 36 41 42 43 49 49 56 54 54 49 51 51 51 54 54 52 49 47 47 49 48 48 48 47 47 47 46 44 41 37 36 36 38 38 37
4 4 6 11 7 8 10 9 18 38 21 10 16 29 40 45 50 53 45 46 47 50 54 57 54 54 54 55 55 54 52 50 50 49 47 48 50 50 50 50 50 47 44 44 44 42 44 44 39
4 6 4 7 8 12 14 14 27 13 18 35 31 30 37 49 55 55 55 53 53 54 57 55 59 60 57 57 58 59 56 56 55 53 50 50 51 51 50 52 53 48 46 48 49 47 48 47 44
7 6 8 11 16 2 11 9 17 8 21 17 11 15 32 43 55 61 60 58 57 55 57 57 59 64 62 61 61 61 61 62 61 60 58 56 55 55 56 55 53 49 49 51 52 53 52 50 47
12 8 7 8 1 4 2 15 19 14 11 19 28 29 29 31 46 51 57 59 60 61 60 61 61 62 64 65 66 67 69 70 70 68 67 65 63 62 61 61 59 55 55 57 58 58 54 55 51
7 2 4 5 1 1 9 12 29 23 29 42 44 45 46 44 43 42 48 59 63 67 65 62 62 62 65 70 75 75 75 73 73 74 72 72 69 69 69 69 67 63 62 63 61 61 61 60 55
3 1 6 11 6 4 11 14 21 18 19 37 42 51 58 63 62 54 50 47 51 51 66 69 67 65 67 70 73 76 76 75 74 74 74 71 71 72 76 78 77 73 69 67 67 67 68 66 60
4 8 5 7 10 1 6 13 11 15 11 35 46 51 50 53 57 65 65 58 54 54 54 60 72 73 70 68 72 76 78 79 76 75 74 71 70 67 69 72 74 76 75 74 71 70 70 71 67
8 12 9 5 3 8 6 12 10 12 15 9 36 45 53 61 55 48 45 52 59 53 54 52 56 68 77 76 78 78 80 81 75 73 70 68 67 66 66 66 69 74 78 78 76 74 72 69 73
10 6 10 5 4 3 2 6 12 4 10 17 26 29 28 30 35 36 34 33 29 36 46 50 49 52 54 67 78 82 86 87 83 86 81 79 76 70 68 67 69 73 76 78 78 78 76 74 72
10 9 12 7 5 5 13 10 7 9 11 10 15 33 34 36 26 23 20 19 18 21 28 33 38 40 45 52 59 69 77 82 88 91 94 94 91 84 76 71 71 71 74 75 78 77 77 75 76
4 11 4 5 2 11 7 5 10 19 11 8 18 34 39 37 34 31 29 28 27 25 26 28 31 28 31 38 45 56 66 72 78 80 83 90 94 92 84 77 77 74 72 74 75 77 79 78 79
12 12 8 11 7 6 5 11 9 9 25 18 37 50 62 64 51 42 39 35 30 29 29 30 34 33 36 38 40 45 52 57 62 68 73 80 85 87 84 78 76 74 73 73 74 75 79 80 79
8 11 10 8 6 6 7 11 17 10 17 40 45 62 64 64 63 59 49 43 40 30 24 20 19 19 22 24 28 32 37 45 52 60 68 71 75 79 78 78 76 73 71 70 68 74 77 77 78
6 7 4 2 5 7 6 7 10 9 15 15 34 51 64 65 64 61 56 49 50 38 25 19 18 25 30 30 29 29 29 30 33 39 49 55 60 64 65 65 65 66 66 67 69 73 75 78 78
3 4 4 5 5 7 1 9 7 13 9 12 27 54 57 62 61 61 57 52 50 43 32 24 17 27 35 35 36 37 37 37 38 38 39 42 47 49 51 53 56 59 61 63 67 69 70 73 74
5 3 8 6 7 6 3 10 18 14 10 10 28 46 53 54 55 52 50 49 48 44 40 35 38 44 42 39 33 34 36 36 39 41 41 42 45 46 48 49 51 52 55 57 62 64 67 71 75
Wind_Direction_850mb
355 274 180 295 53 62 270 231 157 119 53 119 146 155 173 118 159 207 158 164 163 164 165 162 163 166 166 162 163 158 160 161 159 152 147 140 136 123 131 127 113 108 103 100 97 95 92 92 93
359 127 173 98 85 70 276 268 182 175 133 115 92 100 84 124 146 153 152 161 167 169 168 168 167 168 175 169 168 169 170 178 180 169 165 159 148 139 129 127 122 117 115 110 104 99 97 96 98
353 119 109 96 110 174 208 217 185 126 149 153 108 101 109 148 175 169 167 159 169 176 173 173 173 174 177 179 174 178 174 171 170 168 174 178 170 160 138 136 139 139 133 123 117 112 106 102 98
311 155 69 86 238 232 215 196 187 142 142 131 133 73 101 172 195 169 167 167 170 178 178 178 181 180 182 185 185 183 189 187 190 190 192 193 197 189 183 162 148 150 149 152 152 135 120 111 106
88 94 59 75 255 272 238 181 167 131 140 127 136 166 71 149 149 172 173 172 175 181 182 184 187 188 186 192 195 197 203 207 211 213 207 210 216 212 212 207 191 183 184 188 189 176 172 166 138
42 55 68 289 262 301 123 167 170 155 149 141 112 134 140 176 177 173 180 177 181 190 188 189 191 194 193 197 203 207 211 213 216 218 221 218 218 219 225 228 230 230 227 226 231 237 246 253 259
78 66 204 272 195 334 198 196 182 176 158 194 151 131 198 197 194 186 187 188 191 197 197 194 196 198 202 203 205 212 216 217 219 220 221 224 226 230 234 238 240 245 245 249 255 261 264 267 266
7 90 298 45 231 227 186 162 196 173 178 141 171 184 226 198 191 193 193 192 191 202 207 204 204 207 208 209 210 214 219 225 228 225 226 228 230 232 237 240 243 247 249 252 260 263 268 270 273
333 58 304 13 6 290 159 136 158 181 152 179 192 194 228 200 190 191 193 193 199 205 209 211 214 214 214 216 219 220 222 226 230 228 230 230 225 223 225 232 237 244 249 255 258 264 269 273 276
104 118 217 255 288 285 188 178 165 162 159 200 204 212 209 199 198 197 198 201 203 208 209 213 219 220 220 219 221 225 226 229 232 233 236 238 234 232 235 241 243 249 249 259 269 272 272 275 276
163 184 208 225 335 358 173 290 197 159 232 219 227 210 194 196 200 208 211 214 215 213 214 217 220 222 224 226 226 229 232 232 234 235 237 241 241 240 244 247 249 252 253 258 267 270 273 276 278
209 218 202 225 287 332 309 296 274 216 237 256 262 237 200 202 209 213 217 222 222 223 226 226 226 226 230 230 231 233 235 235 235 238 243 245 248 248 249 252 255 255 256 261 268 272 272 278 278
193 235 218 256 284 275 271 253 249 260 255 261 276 216 220 217 223 225 230 231 231 230 230 233 233 232 232 236 236 234 235 237 238 240 243 247 249 251 253 256 257 258 259 265 269 270 272 275 277
184 138 308 265 252 258 221 247 230 256 257 248 245 237 229 230 232 225 228 233 234 235 236 236 237 238 241 240 242 241 240 241 241 241 243 247 251 254 256 258 260 259 262 266 269 269 270 271 273
323 110 345 260 238 243 192 269 235 249 247 249 247 234 231 238 232 236 243 244 242 242 242 240 242 242 245 245 246 244 245 244 244 245 247 250 252 254 256 258 260 263 265 268 270 271 272 274 277
175 56 109 270 184 242 164 263 267 259 259 255 255 248 245 243 244 245 245 248 250 246 244 245 244 245 248 247 247 248 248 249 250 251 252 252 253 256 257 259 261 265 266 267 268 270 272 273 275
352 217 182 303 209 108 173 256 278 285 231 256 275 263 256 258 250 248 249 251 253 256 252 249 246 246 248 251 252 254 255 254 254 255 255 254 255 257 259 261 264 264 264 265 267 267 268 270 274
205 211 222 215 180 164 179 258 268 252 297 291 292 288 283 273 264 261 255 254 255 255 254 254 253 252 250 250 252 254 256 256 256 257 257 259 258 260 262 264 265 264 263 263 263 266 267 270 273
118 220 216 244 106 28 248 252 267 274 280 279 282 288 287 279 276 267 261 257 261 258 255 256 255 252 250 248 247 248 251 254 257 259 260 261 263 264 265 266 265 264 264 265 264 264 264 264 266
123 327 274 287 333 175 302 267 272 277 258 263 272 279 280 283 278 269 259 258 260 264 259 258 259 258 253 251 252 253 257 259 261 264 266 268 268 268 267 265 265 266 265 265 264 263 262 262 262
169 172 212 255 334 184 324 282 259 280 243 269 270 273 274 271 277 277 266 258 259 263 269 266 261 260 260 259 258 257 257 258 262 264 267 271 273 272 270 268 266 266 265 265 264 263 261 262 263
203 193 181 190 119 246 19 287 303 276 296 269 273 267 271 287 287 293 293 268 264 268 266 270 271 268 264 261 258 260 262 263 271 275 277 278 278 277 275 272 269 268 267 264 264 264 263 260 259
212 158 163 161 173 6 295 285 265 348 290 274 266 286 312 327 331 317 304 296 285 274 267 269 270 271 274 270 265 264 264 268 271 272 274 278 279 279 277 276 274 272 270 268 266 264 262 260 259
155 92 52 58 93 296 181 180 227 190 222 274 321 327 338 344 342 359 358 346 318 299 284 274 271 267 261 262 265 267 269 270 270 271 274 275 277 278 280 280 279 278 275 271 270 267 264 263 262
116 106 19 3 12 233 3 209 281 285 278 322 326 1 13 12 5 3 0 348 333 317 296 287 281 275 269 264 266 267 267 268 270 270 272 274 276 277 278 279 279 279 280 279 276 271 267 264 261
175 162 166 202 202 267 40 237 250 238 325 360 58 50 42 34 27 22 14 3 353 341 323 298 287 282 279 278 275 273 272 271 271 273 273 273 274 276 278 277 276 276 277 277 276 273 271 271 267
196 207 163 101 26 52 229 289 299 23 37 51 40 30 25 21 19 21 14 12 3 356 344 324 305 302 306 306 299 295 290 286 283 279 276 274 273 275 277 278 279 277 274 274 275 272 271 272 271
147 167 112 69 195 239 258 262 231 52 51 28 23 11 5 2 4 7 11 9 10 4 5 10 29 38 24 14 7 359 345 330 319 304 291 283 279 279 278 277 277 277 275 274 273 271 271 270 268
108 190 116 145 185 184 211 257 190 113 82 55 2 355 355 353 351 349 349 350 351 358 355 355 357 360 359 350 345 339 333 335 336 326 317 306 294 285 280 281 279 276 274 273 273 272 269 267 265
132 291 178 159 214 231 187 260 135 121 114 36 339 343 344 344 341 342 343 338 338 333 328 331 321 315 316 322 320 321 318 322 324 320 316 310 305 300 293 285 279 276 275 274 273 272 271 269 267